1587160834,2020-04-18 00:00,560.00,-26
1587160894,2020-04-18 00:01,562.00,-30
1587160954,2020-04-18 00:02,562.00,-33
1587161014,2020-04-18 00:03,564.00,-31
1587161075,2020-04-18 00:04,561.00,-31
1587161135,2020-04-18 00:05,561.00,-33
1587161195,2020-04-18 00:06,562.00,-30
1587161256,2020-04-18 00:07,563.00,-31
1587161316,2020-04-18 00:08,559.00,-30
1587161376,2020-04-18 00:09,560.00,-29
1587161437,2020-04-18 00:10,560.00,-33
1587161497,2020-04-18 00:11,564.00,-30
1587161557,2020-04-18 00:12,561.00,-32
1587161617,2020-04-18 00:13,562.00,-26
1587161678,2020-04-18 00:14,560.00,-32
1587161738,2020-04-18 00:15,560.00,-33
1587161798,2020-04-18 00:16,559.00,-32
1587161858,2020-04-18 00:17,562.00,-32
1587161919,2020-04-18 00:18,561.00,-31
1587161979,2020-04-18 00:19,558.00,-31
1587162039,2020-04-18 00:20,563.00,-31
1587162100,2020-04-18 00:21,564.00,-32
1587162160,2020-04-18 00:22,564.00,-32
1587162220,2020-04-18 00:23,562.00,-31
1587162280,2020-04-18 00:24,560.00,-35
1587162341,2020-04-18 00:25,559.00,-28
1587162401,2020-04-18 00:26,560.00,-30
1587162461,2020-04-18 00:27,567.00,-28
1587162521,2020-04-18 00:28,569.00,-30
1587162582,2020-04-18 00:29,570.00,-31
1587162642,2020-04-18 00:30,568.00,-31
1587162702,2020-04-18 00:31,569.00,-30
1587162762,2020-04-18 00:32,566.00,-28
1587162823,2020-04-18 00:33,566.00,-31
1587162883,2020-04-18 00:34,566.00,-31
1587162943,2020-04-18 00:35,568.00,-30
1587163003,2020-04-18 00:36,566.00,-31
1587163064,2020-04-18 00:37,569.00,-30
1587163124,2020-04-18 00:38,567.00,-29
1587163184,2020-04-18 00:39,567.00,-32
1587163244,2020-04-18 00:40,567.00,-29
1587163305,2020-04-18 00:41,567.00,-31
1587163365,2020-04-18 00:42,569.00,-28
1587163425,2020-04-18 00:43,566.00,-31
1587163486,2020-04-18 00:44,570.00,-31
1587163546,2020-04-18 00:45,567.00,-31
1587163606,2020-04-18 00:46,569.00,-34
1587163666,2020-04-18 00:47,569.00,-31
1587163727,2020-04-18 00:48,570.00,-34
1587163787,2020-04-18 00:49,563.00,-28
1587163847,2020-04-18 00:50,564.00,-32
1587163908,2020-04-18 00:51,567.00,-30
1587163968,2020-04-18 00:52,566.00,-33
1587164028,2020-04-18 00:53,568.00,-32
1587164088,2020-04-18 00:54,564.00,-31
1587164149,2020-04-18 00:55,566.00,-33
1587164209,2020-04-18 00:56,565.00,-31
1587164269,2020-04-18 00:57,567.00,-30
1587164330,2020-04-18 00:58,567.00,-34
1587164390,2020-04-18 00:59,567.00,-31
1587164450,2020-04-18 01:00,567.00,-29
1587164510,2020-04-18 01:01,567.00,-30
1587164571,2020-04-18 01:02,566.00,-35
1587164631,2020-04-18 01:03,565.00,-32
1587164691,2020-04-18 01:04,566.00,-32
1587164751,2020-04-18 01:05,565.00,-28
1587164812,2020-04-18 01:06,567.00,-30
1587164872,2020-04-18 01:07,565.00,-36
1587164932,2020-04-18 01:08,566.00,-33
1587164993,2020-04-18 01:09,564.00,-26
1587165053,2020-04-18 01:10,568.00,-32
1587165113,2020-04-18 01:11,565.00,-32
1587165173,2020-04-18 01:12,566.00,-31
1587165234,2020-04-18 01:13,569.00,-31
1587165294,2020-04-18 01:14,569.00,-29
1587165354,2020-04-18 01:15,571.00,-31
1587165415,2020-04-18 01:16,567.00,-32
1587165475,2020-04-18 01:17,570.00,-31
1587165535,2020-04-18 01:18,569.00,-36
1587165595,2020-04-18 01:19,567.00,-29
1587165656,2020-04-18 01:20,571.00,-32
1587165716,2020-04-18 01:21,570.00,-31
1587165776,2020-04-18 01:22,568.00,-31
1587165836,2020-04-18 01:23,569.00,-28
1587165897,2020-04-18 01:24,565.00,-30
1587165957,2020-04-18 01:25,567.00,-34
1587166017,2020-04-18 01:26,568.00,-29
1587166078,2020-04-18 01:27,568.00,-33
1587166138,2020-04-18 01:28,565.00,-33
1587166198,2020-04-18 01:29,567.00,-34
1587166258,2020-04-18 01:30,566.00,-29
1587166319,2020-04-18 01:31,568.00,-31
1587166379,2020-04-18 01:32,564.00,-30
1587166439,2020-04-18 01:33,569.00,-36
1587166500,2020-04-18 01:35,568.00,-27
1587166560,2020-04-18 01:36,565.00,-31
1587166620,2020-04-18 01:37,569.00,-31
1587166680,2020-04-18 01:38,571.00,-30
1587166741,2020-04-18 01:39,569.00,-36
1587166801,2020-04-18 01:40,566.00,-34
1587166861,2020-04-18 01:41,566.00,-35
1587166922,2020-04-18 01:42,564.00,-31
1587166982,2020-04-18 01:43,567.00,-29
1587167042,2020-04-18 01:44,563.00,-32
1587167102,2020-04-18 01:45,565.00,-34
1587167163,2020-04-18 01:46,569.00,-30
1587167223,2020-04-18 01:47,566.00,-34
1587167283,2020-04-18 01:48,569.00,-34
1587167344,2020-04-18 01:49,568.00,-33
1587167404,2020-04-18 01:50,567.00,-31
1587167464,2020-04-18 01:51,567.00,-37
1587167524,2020-04-18 01:52,570.00,-31
1587167585,2020-04-18 01:53,570.00,-38
1587167645,2020-04-18 01:54,571.00,-33
1587167705,2020-04-18 01:55,569.00,-35
1587167766,2020-04-18 01:56,571.00,-32
1587167826,2020-04-18 01:57,568.00,-31
1587167886,2020-04-18 01:58,566.00,-29
1587167946,2020-04-18 01:59,565.00,-30
1587168007,2020-04-18 02:00,567.00,-30
1587168067,2020-04-18 02:01,563.00,-34
1587168127,2020-04-18 02:02,566.00,-32
1587168187,2020-04-18 02:03,567.00,-35
1587168248,2020-04-18 02:04,563.00,-36
1587168308,2020-04-18 02:05,567.00,-32
1587168368,2020-04-18 02:06,566.00,-33
1587168429,2020-04-18 02:07,563.00,-29
1587168489,2020-04-18 02:08,564.00,-33
1587168549,2020-04-18 02:09,564.00,-35
1587168609,2020-04-18 02:10,564.00,-36
1587168670,2020-04-18 02:11,565.00,-29
1587168730,2020-04-18 02:12,566.00,-32
1587168790,2020-04-18 02:13,564.00,-30
1587168851,2020-04-18 02:14,561.00,-32
1587168911,2020-04-18 02:15,561.00,-26
1587168971,2020-04-18 02:16,566.00,-35
1587169031,2020-04-18 02:17,566.00,-34
1587169092,2020-04-18 02:18,567.00,-35
1587169152,2020-04-18 02:19,566.00,-36
1587169212,2020-04-18 02:20,565.00,-30
1587169272,2020-04-18 02:21,565.00,-34
1587169333,2020-04-18 02:22,568.00,-31
1587169393,2020-04-18 02:23,570.00,-35
1587169453,2020-04-18 02:24,564.00,-32
1587169514,2020-04-18 02:25,569.00,-33
1587169574,2020-04-18 02:26,568.00,-29
1587169634,2020-04-18 02:27,568.00,-31
1587169694,2020-04-18 02:28,570.00,-31
1587169755,2020-04-18 02:29,565.00,-31
1587169815,2020-04-18 02:30,568.00,-30
1587169875,2020-04-18 02:31,575.00,-32
1587169935,2020-04-18 02:32,579.00,-30
1587169996,2020-04-18 02:33,574.00,-31
1587170056,2020-04-18 02:34,566.00,-31
1587170116,2020-04-18 02:35,569.00,-31
1587170176,2020-04-18 02:36,564.00,-33
1587170237,2020-04-18 02:37,570.00,-35
1587170297,2020-04-18 02:38,565.00,-30
1587170357,2020-04-18 02:39,564.00,-28
1587170417,2020-04-18 02:40,559.00,-32
1587170478,2020-04-18 02:41,563.00,-29
1587170538,2020-04-18 02:42,565.00,-31
1587170598,2020-04-18 02:43,564.00,-29
1587170659,2020-04-18 02:44,570.00,-31
1587170719,2020-04-18 02:45,569.00,-29
1587170779,2020-04-18 02:46,566.00,-31
1587170839,2020-04-18 02:47,568.00,-37
1587170900,2020-04-18 02:48,564.00,-33
1587170960,2020-04-18 02:49,564.00,-34
1587171020,2020-04-18 02:50,561.00,-34
1587171080,2020-04-18 02:51,561.00,-30
1587171140,2020-04-18 02:52,559.00,-33
1587171200,2020-04-18 02:53,563.00,-32
1587171260,2020-04-18 02:54,565.00,-32
1587171320,2020-04-18 02:55,561.00,-30
1587171380,2020-04-18 02:56,565.00,-28
1587171441,2020-04-18 02:57,567.00,-38
1587171501,2020-04-18 02:58,563.00,-34
1587171561,2020-04-18 02:59,565.00,-32
1587171621,2020-04-18 03:00,560.00,-32
1587171681,2020-04-18 03:01,561.00,-32
1587171741,2020-04-18 03:02,561.00,-29
1587171801,2020-04-18 03:03,560.00,-29
1587171861,2020-04-18 03:04,562.00,-30
1587171921,2020-04-18 03:05,560.00,-32
1587171981,2020-04-18 03:06,564.00,-30
1587172041,2020-04-18 03:07,563.00,-31
1587172101,2020-04-18 03:08,561.00,-29
1587172161,2020-04-18 03:09,568.00,-32
1587172222,2020-04-18 03:10,570.00,-33
1587172282,2020-04-18 03:11,570.00,-30
1587172342,2020-04-18 03:12,567.00,-31
1587172402,2020-04-18 03:13,566.00,-29
1587172462,2020-04-18 03:14,563.00,-30
1587172522,2020-04-18 03:15,568.00,-28
1587172582,2020-04-18 03:16,569.00,-33
1587172642,2020-04-18 03:17,569.00,-31
1587172702,2020-04-18 03:18,570.00,-33
1587172762,2020-04-18 03:19,569.00,-29
1587172822,2020-04-18 03:20,567.00,-28
1587172882,2020-04-18 03:21,569.00,-30
1587172942,2020-04-18 03:22,571.00,-33
1587173003,2020-04-18 03:23,568.00,-29
1587173063,2020-04-18 03:24,567.00,-31
1587173123,2020-04-18 03:25,567.00,-29
1587173183,2020-04-18 03:26,567.00,-33
1587173243,2020-04-18 03:27,568.00,-32
1587173303,2020-04-18 03:28,568.00,-32
1587173363,2020-04-18 03:29,566.00,-30
1587173423,2020-04-18 03:30,566.00,-29
1587173483,2020-04-18 03:31,565.00,-29
1587173543,2020-04-18 03:32,567.00,-35
1587173603,2020-04-18 03:33,566.00,-36
1587173663,2020-04-18 03:34,566.00,-32
1587173723,2020-04-18 03:35,564.00,-34
1587173784,2020-04-18 03:36,565.00,-31
1587173844,2020-04-18 03:37,569.00,-33
1587173904,2020-04-18 03:38,564.00,-30
1587173964,2020-04-18 03:39,568.00,-33
1587174024,2020-04-18 03:40,564.00,-37
1587174084,2020-04-18 03:41,564.00,-33
1587174144,2020-04-18 03:42,566.00,-33
1587174204,2020-04-18 03:43,567.00,-29
1587174264,2020-04-18 03:44,567.00,-32
1587174324,2020-04-18 03:45,569.00,-29
1587174384,2020-04-18 03:46,567.00,-30
1587174444,2020-04-18 03:47,571.00,-29
1587174504,2020-04-18 03:48,570.00,-29
1587174565,2020-04-18 03:49,570.00,-31
1587174625,2020-04-18 03:50,573.00,-34
1587174685,2020-04-18 03:51,568.00,-29
1587174745,2020-04-18 03:52,565.00,-34
1587174805,2020-04-18 03:53,573.00,-32
1587174928,2020-04-18 03:55,573.00,-36
1587174988,2020-04-18 03:56,572.00,-39
1587175049,2020-04-18 03:57,572.00,-32
1587175109,2020-04-18 03:58,575.00,-34
1587175169,2020-04-18 03:59,576.00,-37
1587175229,2020-04-18 04:00,578.00,-33
1587175290,2020-04-18 04:01,572.00,-32
1587175350,2020-04-18 04:02,578.00,-31
1587175410,2020-04-18 04:03,578.00,-30
1587175471,2020-04-18 04:04,573.00,-29
1587175531,2020-04-18 04:05,573.00,-32
1587175591,2020-04-18 04:06,574.00,-29
1587175651,2020-04-18 04:07,575.00,-31
1587175712,2020-04-18 04:08,576.00,-30
1587175772,2020-04-18 04:09,574.00,-32
1587175832,2020-04-18 04:10,575.00,-36
1587175892,2020-04-18 04:11,579.00,-31
1587175953,2020-04-18 04:12,579.00,-32
1587176013,2020-04-18 04:13,579.00,-29
1587176073,2020-04-18 04:14,570.00,-30
1587176134,2020-04-18 04:15,571.00,-32
1587176194,2020-04-18 04:16,571.00,-29
1587176254,2020-04-18 04:17,574.00,-30
1587176314,2020-04-18 04:18,575.00,-30
1587176375,2020-04-18 04:19,578.00,-30
1587176435,2020-04-18 04:20,573.00,-33
1587176495,2020-04-18 04:21,568.00,-29
1587176555,2020-04-18 04:22,569.00,-34
1587176616,2020-04-18 04:23,563.00,-30
1587176676,2020-04-18 04:24,567.00,-30
1587176736,2020-04-18 04:25,568.00,-29
1587176797,2020-04-18 04:26,563.00,-32
1587176857,2020-04-18 04:27,563.00,-33
1587176917,2020-04-18 04:28,562.00,-35
1587176977,2020-04-18 04:29,563.00,-36
1587177038,2020-04-18 04:30,563.00,-33
1587177098,2020-04-18 04:31,562.00,-31
1587177158,2020-04-18 04:32,558.00,-31
1587177218,2020-04-18 04:33,560.00,-32
1587177279,2020-04-18 04:34,561.00,-29
1587177339,2020-04-18 04:35,562.00,-32
1587177399,2020-04-18 04:36,559.00,-30
1587177459,2020-04-18 04:37,561.00,-31
1587177520,2020-04-18 04:38,559.00,-31
1587177580,2020-04-18 04:39,567.00,-30
1587177640,2020-04-18 04:40,568.00,-30
1587177701,2020-04-18 04:41,567.00,-31
1587177761,2020-04-18 04:42,567.00,-32
1587177821,2020-04-18 04:43,564.00,-30
1587177881,2020-04-18 04:44,567.00,-36
1587177942,2020-04-18 04:45,563.00,-33
1587178002,2020-04-18 04:46,568.00,-32
1587178062,2020-04-18 04:47,565.00,-37
1587178122,2020-04-18 04:48,565.00,-31
1587178183,2020-04-18 04:49,563.00,-28
1587178243,2020-04-18 04:50,564.00,-34
1587178303,2020-04-18 04:51,563.00,-32
1587178364,2020-04-18 04:52,565.00,-33
1587178424,2020-04-18 04:53,565.00,-36
1587178484,2020-04-18 04:54,568.00,-32
1587178544,2020-04-18 04:55,567.00,-37
1587178605,2020-04-18 04:56,565.00,-36
1587178665,2020-04-18 04:57,563.00,-36
1587178725,2020-04-18 04:58,566.00,-33
1587178786,2020-04-18 04:59,563.00,-30
1587178846,2020-04-18 05:00,564.00,-30
1587178906,2020-04-18 05:01,563.00,-32
1587178966,2020-04-18 05:02,565.00,-30
1587179027,2020-04-18 05:03,564.00,-35
1587179087,2020-04-18 05:04,560.00,-36
1587179147,2020-04-18 05:05,562.00,-31
1587179207,2020-04-18 05:06,563.00,-36
1587179268,2020-04-18 05:07,562.00,-34
1587179328,2020-04-18 05:08,569.00,-35
1587179388,2020-04-18 05:09,570.00,-32
1587179449,2020-04-18 05:10,573.00,-33
1587179509,2020-04-18 05:11,576.00,-40
1587179569,2020-04-18 05:12,575.00,-30
1587179629,2020-04-18 05:13,576.00,-33
1587179690,2020-04-18 05:14,574.00,-31
1587179750,2020-04-18 05:15,571.00,-38
1587179810,2020-04-18 05:16,572.00,-34
1587179870,2020-04-18 05:17,572.00,-34
1587179931,2020-04-18 05:18,571.00,-31
1587179991,2020-04-18 05:19,575.00,-32
1587180051,2020-04-18 05:20,574.00,-30
1587180112,2020-04-18 05:21,572.00,-28
1587180172,2020-04-18 05:22,566.00,-36
1587180232,2020-04-18 05:23,567.00,-31
1587180292,2020-04-18 05:24,568.00,-36
1587180353,2020-04-18 05:25,568.00,-29
1587180413,2020-04-18 05:26,564.00,-33
1587180473,2020-04-18 05:27,561.00,-33
1587180534,2020-04-18 05:28,567.00,-33
1587180594,2020-04-18 05:29,565.00,-28
1587180654,2020-04-18 05:30,565.00,-38
1587180714,2020-04-18 05:31,565.00,-31
1587180775,2020-04-18 05:32,563.00,-32
1587180835,2020-04-18 05:33,566.00,-35
1587180895,2020-04-18 05:34,564.00,-34
1587180955,2020-04-18 05:35,565.00,-30
1587181016,2020-04-18 05:36,566.00,-30
1587181076,2020-04-18 05:37,568.00,-29
1587181136,2020-04-18 05:38,567.00,-32
1587181196,2020-04-18 05:39,567.00,-32
1587181257,2020-04-18 05:40,565.00,-33
1587181317,2020-04-18 05:41,564.00,-30
1587181377,2020-04-18 05:42,564.00,-33
1587181438,2020-04-18 05:43,563.00,-29
1587181498,2020-04-18 05:44,564.00,-29
1587181558,2020-04-18 05:45,566.00,-30
1587181618,2020-04-18 05:46,564.00,-35
1587181679,2020-04-18 05:47,563.00,-32
1587181739,2020-04-18 05:48,566.00,-34
1587181799,2020-04-18 05:49,566.00,-29
1587181860,2020-04-18 05:51,561.00,-33
1587181920,2020-04-18 05:52,562.00,-33
1587181980,2020-04-18 05:53,563.00,-31
1587182040,2020-04-18 05:54,563.00,-30
1587182101,2020-04-18 05:55,567.00,-30
1587182161,2020-04-18 05:56,565.00,-34
1587182221,2020-04-18 05:57,566.00,-33
1587182281,2020-04-18 05:58,567.00,-33
1587182342,2020-04-18 05:59,562.00,-32
1587182402,2020-04-18 06:00,567.00,-29
1587182462,2020-04-18 06:01,565.00,-32
1587182522,2020-04-18 06:02,562.00,-30
1587182583,2020-04-18 06:03,563.00,-35
1587182643,2020-04-18 06:04,565.00,-32
1587182703,2020-04-18 06:05,565.00,-34
1587182764,2020-04-18 06:06,566.00,-30
1587182824,2020-04-18 06:07,564.00,-31
1587182884,2020-04-18 06:08,563.00,-30
1587182944,2020-04-18 06:09,565.00,-30
1587183005,2020-04-18 06:10,566.00,-31
1587183065,2020-04-18 06:11,567.00,-29
1587183125,2020-04-18 06:12,567.00,-34
1587183186,2020-04-18 06:13,565.00,-37
1587183246,2020-04-18 06:14,567.00,-34
1587183306,2020-04-18 06:15,567.00,-32
1587183366,2020-04-18 06:16,565.00,-31
1587183427,2020-04-18 06:17,568.00,-30
1587183487,2020-04-18 06:18,569.00,-30
1587183547,2020-04-18 06:19,570.00,-30
1587183607,2020-04-18 06:20,570.00,-29
1587183668,2020-04-18 06:21,570.00,-33
1587183728,2020-04-18 06:22,570.00,-28
1587183788,2020-04-18 06:23,570.00,-30
1587183849,2020-04-18 06:24,569.00,-30
1587183909,2020-04-18 06:25,570.00,-33
1587183969,2020-04-18 06:26,573.00,-30
1587184029,2020-04-18 06:27,571.00,-31
1587184090,2020-04-18 06:28,573.00,-31
1587184150,2020-04-18 06:29,574.00,-32
1587184210,2020-04-18 06:30,575.00,-32
1587184270,2020-04-18 06:31,577.00,-30
1587184331,2020-04-18 06:32,582.00,-29
1587184391,2020-04-18 06:33,580.00,-33
1587184451,2020-04-18 06:34,581.00,-30
1587184511,2020-04-18 06:35,583.00,-32
1587184572,2020-04-18 06:36,580.00,-33
1587184632,2020-04-18 06:37,580.00,-34
1587184692,2020-04-18 06:38,575.00,-30
1587184753,2020-04-18 06:39,577.00,-32
1587184813,2020-04-18 06:40,576.00,-29
1587184873,2020-04-18 06:41,577.00,-33
1587184933,2020-04-18 06:42,580.00,-31
1587184994,2020-04-18 06:43,583.00,-32
1587185054,2020-04-18 06:44,582.00,-29
1587185114,2020-04-18 06:45,584.00,-31
1587185174,2020-04-18 06:46,587.00,-31
1587185235,2020-04-18 06:47,582.00,-33
1587185295,2020-04-18 06:48,580.00,-34
1587185355,2020-04-18 06:49,582.00,-30
1587185415,2020-04-18 06:50,578.00,-31
1587185476,2020-04-18 06:51,578.00,-31
1587185536,2020-04-18 06:52,578.00,-29
1587185596,2020-04-18 06:53,580.00,-29
1587185657,2020-04-18 06:54,580.00,-31
1587185717,2020-04-18 06:55,574.00,-28
1587185777,2020-04-18 06:56,579.00,-29
1587185837,2020-04-18 06:57,578.00,-33
1587185898,2020-04-18 06:58,583.00,-28
1587185958,2020-04-18 06:59,583.00,-36
1587186018,2020-04-18 07:00,583.00,-29
1587186078,2020-04-18 07:01,585.00,-35
1587186139,2020-04-18 07:02,581.00,-30
1587186199,2020-04-18 07:03,579.00,-33
1587186259,2020-04-18 07:04,579.00,-33
1587186320,2020-04-18 07:05,579.00,-34
1587186380,2020-04-18 07:06,582.00,-33
1587186440,2020-04-18 07:07,583.00,-33
1587186500,2020-04-18 07:08,582.00,-30
1587186560,2020-04-18 07:09,582.00,-32
1587186620,2020-04-18 07:10,580.00,-36
1587186680,2020-04-18 07:11,581.00,-33
1587186741,2020-04-18 07:12,575.00,-34
1587186801,2020-04-18 07:13,575.00,-33
1587186861,2020-04-18 07:14,574.00,-33
1587186921,2020-04-18 07:15,579.00,-31
1587186981,2020-04-18 07:16,583.00,-29
1587187041,2020-04-18 07:17,582.00,-30
1587187101,2020-04-18 07:18,583.00,-31
1587187161,2020-04-18 07:19,589.00,-31
1587187221,2020-04-18 07:20,584.00,-35
1587187281,2020-04-18 07:21,578.00,-32
1587187341,2020-04-18 07:22,572.00,-35
1587187401,2020-04-18 07:23,570.00,-36
1587187461,2020-04-18 07:24,572.00,-32
1587187522,2020-04-18 07:25,571.00,-35
1587187582,2020-04-18 07:26,572.00,-35
1587187642,2020-04-18 07:27,574.00,-34
1587187702,2020-04-18 07:28,574.00,-35
1587187762,2020-04-18 07:29,569.00,-30
1587187822,2020-04-18 07:30,573.00,-35
1587187882,2020-04-18 07:31,578.00,-36
1587187942,2020-04-18 07:32,578.00,-34
1587188002,2020-04-18 07:33,573.00,-31
1587188062,2020-04-18 07:34,578.00,-33
1587188122,2020-04-18 07:35,572.00,-39
1587188182,2020-04-18 07:36,567.00,-38
1587188243,2020-04-18 07:37,568.00,-34
1587188303,2020-04-18 07:38,566.00,-30
1587188363,2020-04-18 07:39,565.00,-29
1587188423,2020-04-18 07:40,562.00,-34
1587188483,2020-04-18 07:41,565.00,-31
1587188543,2020-04-18 07:42,564.00,-29
1587188603,2020-04-18 07:43,565.00,-35
1587188663,2020-04-18 07:44,562.00,-30
1587188723,2020-04-18 07:45,564.00,-30
1587188783,2020-04-18 07:46,565.00,-33
1587188843,2020-04-18 07:47,566.00,-29
1587188903,2020-04-18 07:48,568.00,-30
1587188964,2020-04-18 07:49,570.00,-39
1587189024,2020-04-18 07:50,572.00,-33
1587189084,2020-04-18 07:51,572.00,-33
1587189144,2020-04-18 07:52,571.00,-31
1587189204,2020-04-18 07:53,579.00,-39
1587189264,2020-04-18 07:54,579.00,-35
1587189324,2020-04-18 07:55,581.00,-34
1587189384,2020-04-18 07:56,582.00,-38
1587189444,2020-04-18 07:57,581.00,-41
1587189504,2020-04-18 07:58,582.00,-33
1587189564,2020-04-18 07:59,580.00,-35
1587189624,2020-04-18 08:00,582.00,-29
1587189684,2020-04-18 08:01,583.00,-31
1587189745,2020-04-18 08:02,583.00,-30
1587189805,2020-04-18 08:03,579.00,-30
1587189865,2020-04-18 08:04,576.00,-30
1587189925,2020-04-18 08:05,577.00,-34
1587189985,2020-04-18 08:06,576.00,-34
1587190045,2020-04-18 08:07,575.00,-29
1587190105,2020-04-18 08:08,579.00,-33
1587190228,2020-04-18 08:10,576.00,-29
1587190289,2020-04-18 08:11,578.00,-31
1587190349,2020-04-18 08:12,576.00,-31
1587190409,2020-04-18 08:13,574.00,-34
1587190469,2020-04-18 08:14,576.00,-32
1587190530,2020-04-18 08:15,577.00,-31
1587190590,2020-04-18 08:16,577.00,-33
1587190650,2020-04-18 08:17,575.00,-29
1587190711,2020-04-18 08:18,570.00,-34
1587190771,2020-04-18 08:19,567.00,-31
1587190831,2020-04-18 08:20,567.00,-34
1587190891,2020-04-18 08:21,568.00,-32
1587190952,2020-04-18 08:22,568.00,-33
1587191012,2020-04-18 08:23,567.00,-30
1587191072,2020-04-18 08:24,567.00,-31
1587191132,2020-04-18 08:25,569.00,-29
1587191193,2020-04-18 08:26,572.00,-34
1587191253,2020-04-18 08:27,576.00,-38
1587191313,2020-04-18 08:28,575.00,-30
1587191374,2020-04-18 08:29,577.00,-31
1587191434,2020-04-18 08:30,572.00,-36
1587191494,2020-04-18 08:31,569.00,-33
1587191554,2020-04-18 08:32,570.00,-33
1587191615,2020-04-18 08:33,569.00,-41
1587191675,2020-04-18 08:34,567.00,-40
1587191735,2020-04-18 08:35,569.00,-37
1587191795,2020-04-18 08:36,565.00,-29
1587191856,2020-04-18 08:37,565.00,-30
1587191916,2020-04-18 08:38,565.00,-30
1587191976,2020-04-18 08:39,573.00,-29
1587192037,2020-04-18 08:40,572.00,-32
1587192097,2020-04-18 08:41,568.00,-32
1587192157,2020-04-18 08:42,569.00,-31
1587192217,2020-04-18 08:43,570.00,-32
1587192278,2020-04-18 08:44,574.00,-30
1587192338,2020-04-18 08:45,574.00,-33
1587192398,2020-04-18 08:46,576.00,-32
1587192458,2020-04-18 08:47,575.00,-32
1587192519,2020-04-18 08:48,575.00,-29
1587192579,2020-04-18 08:49,571.00,-28
1587192639,2020-04-18 08:50,572.00,-31
1587192700,2020-04-18 08:51,572.00,-31
1587192760,2020-04-18 08:52,572.00,-35
1587192820,2020-04-18 08:53,572.00,-28
1587192880,2020-04-18 08:54,567.00,-29
1587192941,2020-04-18 08:55,568.00,-30
1587193001,2020-04-18 08:56,566.00,-30
1587193061,2020-04-18 08:57,563.00,-32
1587193121,2020-04-18 08:58,561.00,-31
1587193182,2020-04-18 08:59,561.00,-28
1587193242,2020-04-18 09:00,564.00,-30
1587193302,2020-04-18 09:01,566.00,-34
1587193363,2020-04-18 09:02,565.00,-36
1587193423,2020-04-18 09:03,565.00,-30
1587193483,2020-04-18 09:04,563.00,-38
1587193543,2020-04-18 09:05,558.00,-32
1587193603,2020-04-18 09:06,556.00,-35
1587193664,2020-04-18 09:07,560.00,-32
1587193724,2020-04-18 09:08,560.00,-35
1587193784,2020-04-18 09:09,559.00,-33
1587193844,2020-04-18 09:10,562.00,-35
1587193905,2020-04-18 09:11,562.00,-34
1587193965,2020-04-18 09:12,561.00,-29
1587194025,2020-04-18 09:13,558.00,-30
1587194085,2020-04-18 09:14,560.00,-29
1587194145,2020-04-18 09:15,561.00,-33
1587194206,2020-04-18 09:16,558.00,-36
1587194266,2020-04-18 09:17,551.00,-29
1587194326,2020-04-18 09:18,553.00,-29
1587194387,2020-04-18 09:19,555.00,-29
1587194447,2020-04-18 09:20,552.00,-31
1587194507,2020-04-18 09:21,550.00,-33
1587194567,2020-04-18 09:22,550.00,-29
1587194628,2020-04-18 09:23,550.00,-35
1587194688,2020-04-18 09:24,553.00,-36
1587194748,2020-04-18 09:25,553.00,-33
1587194808,2020-04-18 09:26,551.00,-35
1587194869,2020-04-18 09:27,552.00,-31
1587194929,2020-04-18 09:28,553.00,-35
1587194989,2020-04-18 09:29,554.00,-31
1587195050,2020-04-18 09:30,547.00,-34
1587195110,2020-04-18 09:31,545.00,-31
1587195170,2020-04-18 09:32,545.00,-30
1587195230,2020-04-18 09:33,547.00,-29
1587195291,2020-04-18 09:34,546.00,-30
1587195351,2020-04-18 09:35,543.00,-32
1587195411,2020-04-18 09:36,546.00,-34
1587195471,2020-04-18 09:37,549.00,-36
1587195532,2020-04-18 09:38,554.00,-33
1587195592,2020-04-18 09:39,553.00,-29
1587195652,2020-04-18 09:40,551.00,-31
1587195713,2020-04-18 09:41,548.00,-30
1587195773,2020-04-18 09:42,547.00,-32
1587195833,2020-04-18 09:43,544.00,-35
1587195893,2020-04-18 09:44,546.00,-32
1587195954,2020-04-18 09:45,546.00,-35
1587196014,2020-04-18 09:46,551.00,-31
1587196074,2020-04-18 09:47,556.00,-33
1587196134,2020-04-18 09:48,557.00,-32
1587196195,2020-04-18 09:49,553.00,-32
1587196255,2020-04-18 09:50,551.00,-29
1587196315,2020-04-18 09:51,549.00,-30
1587196376,2020-04-18 09:52,545.00,-33
1587196436,2020-04-18 09:53,545.00,-31
1587196496,2020-04-18 09:54,551.00,-33
1587196556,2020-04-18 09:55,557.00,-28
1587196617,2020-04-18 09:56,557.00,-27
1587196677,2020-04-18 09:57,558.00,-29
1587196737,2020-04-18 09:58,556.00,-28
1587196797,2020-04-18 09:59,559.00,-30
1587196858,2020-04-18 10:00,557.00,-32
1587196918,2020-04-18 10:01,552.00,-32
1587196978,2020-04-18 10:02,555.00,-34
1587197039,2020-04-18 10:03,559.00,-35
1587197099,2020-04-18 10:04,559.00,-32
1587197159,2020-04-18 10:05,560.00,-29
1587197219,2020-04-18 10:06,560.00,-34
1587197280,2020-04-18 10:08,555.00,-33
1587197340,2020-04-18 10:09,546.00,-32
1587197400,2020-04-18 10:10,549.00,-32
1587197461,2020-04-18 10:11,549.00,-35
1587197521,2020-04-18 10:12,547.00,-33
1587197581,2020-04-18 10:13,545.00,-30
1587197641,2020-04-18 10:14,548.00,-34
1587197702,2020-04-18 10:15,548.00,-34
1587197762,2020-04-18 10:16,552.00,-33
1587197822,2020-04-18 10:17,549.00,-31
1587197882,2020-04-18 10:18,553.00,-35
1587197943,2020-04-18 10:19,547.00,-30